User: anonymous   Login
Location: Unspecified
(0.0000°N, 0.0000°E)
Time: 21:44:38
(UTC+00:00)
Language:

FIREBIRD 4 - Orbit

View from above orbital plane
View from above orbital plane
View from above satellite
View from above satellite

Ground track
Ground track

The orbit data is extracted from the following two-line orbital elements,

1 40378U 15003C   18049.51337445  .00002508  00000-0  10707-3 0  9998
2 40378  99.1015 287.7353 0131735 265.1123  93.5054 15.16733363168339
Epoch (UTC): 18 February 2018 12:19:15
Eccentricity: 0.0131735
inclination: 99.1015°
perigee height: 425 km
apogee height: 606 km
right ascension of ascending node: 287.7353°
argument of perigee: 265.1123°
revolutions per day: 15.16733363
mean anomaly at epoch: 93.5054°
orbit number at epoch: 16833

The dashed part of the orbit path shows where the satellite is in the earth's shadow,  

DLR